Regional Weather Roundup
Issued by NWS State College, PA

Home | Current Version | Previous Version | Graphics & Text | Print | Product List | Glossary Off
Versions: 1 2 3 4 5 6 7 8 9 10 11 12 13 14 15 16 17 18 19 20 21 22 23 24 25 26 27 28 29 30 31 32 33 34 35 36 37 38 39 40 41 42 43 44 45 46 47 48 49 50

000
ASUS41 KCTP 310303
RWRCTP

REGIONAL WEATHER ROUNDUP
NATIONAL WEATHER SERVICE STATE COLLEGE PA
1100 PM EDT SAT AUG 30 2014

Note: "fair" indicates few or no clouds below 12,000 feet with no
significant weather and/or obstructions to visibility.

* = STATION THAT DOES NOT REPORT PRECIPITATION /E.G. RAIN...SNOW...ETC/
    THUNDER OR FOG.

PAZ002>004-007>009-013>016-020>023-029>032-310400-
WESTERN PENNSYLVANIA

CITY           SKY/WX    TMP DP  RH WIND       PRES   REMARKS
ERIE           MOCLDY    81  64  56 S14       29.96F
MEADVILLE      CLOUDY    76  65  68 S6        30.04S
FRANKLIN*      MOCLDY    75  64  69 S10       30.07S
NEW CASTLE     FAIR      78  68  71 CALM      30.04S
BEAVER COUNTY  NOT AVBL
BUTLER*        PTCLDY    75  64  69 S6        30.08S
PITTSBURGH INT MOCLDY    77  67  71 S6        30.06S
PITTSBURGH     CLEAR     77  65  66 S7        30.07R
INDIANA*       MOCLDY    75  68  78 S8        30.14R
LATROBE        CLEAR     75  70  83 S3        30.09S
WASHINGTON CO* PTCLDY    68  66  94 CALM      30.08S
$$

PAZ004>006-010>012-017>019-024>028-033>037-041-042-045-046-049>053-310400-
CENTRAL PENNSYLVANIA

CITY           SKY/WX    TMP DP  RH WIND       PRES   REMARKS
BRADFORD       PTCLDY    70  66  87 S8        30.10F
DUBOIS         PTCLDY    71  68  90 SE8       30.10S
CLEARFIELD     PTCLDY    69  67  93 N3        30.13R
JOHNSTOWN      CLEAR     69  65  86 S5        30.17R
ALTOONA        CLOUDY    71  69  93 SW5       30.15R
STATE COLLEGE  CLOUDY    73  68  84 W6        30.13R
WILLIAMSPORT   CLOUDY    73  64  73 NE7       30.10S
SELINSGROVE    CLOUDY    73  66  78 CALM      30.12S
FT INDIANTOWN  CLOUDY    70  70  99 N2        30.15S
CAPITAL CITY   CLOUDY    72  66  81 E7        30.13S
HARRISBURG     MOCLDY    73  66  78 SE6       30.12F
YORK           MOCLDY    73  67  81 CALM      30.13F
$$

PAZ038>040-043-044-047-048-054-055-060>062-067>071-310400-
EASTERN PENNSYLVANIA

CITY           SKY/WX    TMP DP  RH WIND       PRES   REMARKS
SCRANTON       CLOUDY    72  62  71 S6        30.14S
MOUNT POCONO   CLOUDY    67  61  81 S7        30.19F
ALLENTOWN      CLOUDY    75  61  61 S12       30.15F
QUAKERTOWN*    CLOUDY    73  63  68 CALM      30.18S
READING        MOCLDY    74  64  71 S7        30.14F
LANCASTER      CLOUDY    71  65  81 SE5       30.14F
COATESVILLE    MOCLDY    70  68  94 SE5       30.18S
POTTSTOWN      MOCLDY    72  62  71 CALM      30.17F
BLUE BELL      CLOUDY    73  63  68 S5        30.16F
DOYLESTOWN     CLOUDY    70  64  81 S5        30.17S
WILLOW GROVE   NOT AVBL
NORTH PHILA    CLOUDY    75  57  53 VRB5      30.18S
PHILADELPHIA   CLOUDY    74  63  68 S7        30.17S
$$



USA.gov is the U.S. government's official web portal to all federal, state and local government web resources and services.